NOAA 16 DEB

Satellite information

Favourite Embed

Satellite Type and Status

DEBRISIN ORBIT

Key statistics

Satellite NOAA 16 DEB at a glance.

Uptime

9168

Days in orbit

Revolutions

≈ 14.5

Per day

Orbit

SSO

Sun Synchronous Orbit

Inclination

99.0

Latest

Satellite identification and parameters

Extended collection of information and parameters for NOAA 16 DEB.

Object identification

Identified? True

Debris? True

Object name: NOAA 16 DEB

International designator: 2000-055LK

Object number (NORAD): 41430

Object ID (CCSDS): 41430

Country: UNITED STATES OF AMERICA (US)

Current information (Y/N): Y

RCS size: SMALL

Orbital parameters

Period: 99.501 minutes

Inclination: 99.0101 deg

SMA: 7112.895 km

Apoapsis: 758.792 km

Periapsis: 710.728 km

RAAN: 137.3747 deg

Eccentricy: 0.00337862

Argument of periapsis: 115.6256 deg

Mean anomaly: 244.8431 deg

Mean motion: 14.4721534 rev/day

Mean motion (dot): 0.00007661 rev/day2

B* drag term: 0.0020935767 1/REarth

Two-line elements (TLE)

Creation date: Oct. 28, 2025, 2:18 a.m.

Reference frame: TEME

Reference center: EARTH

Epoch: Oct. 27, 2025, 7:10 a.m. UTC

TLE line 0: 0 NOAA 16 DEB

TLE line 1: 1 41430U 00055LK 25300.29893862 .00007661 00000-0 20936-2 0 9991

TLE line 2: 2 41430 99.0101 137.3747 0033786 115.6256 244.8431 14.47215340508414

Live tracking on map

Real-time ground track for satellite NOAA 16 DEB.

In-orbit conjunctions

A list of the most updated potential collisions computed for object NOAA 16 DEB.

Target Orbit TCA Probability of collision Miss distance Type
TIROS 3 LEO 2025-02-24 15:59:01 0.00056769 80.0 (m) PAYLOAD
CZ-2D R/B SSO 2024-10-26 06:17:47 0.0002123517 447.0 (m) ROCKET BODY

Associated space launch

The NOAA K, L and M POES satellites begin the fifth generation of improved environmental monitoring in support of NOAA missions. The instrument payload has significant improvements and additions/deletions. The instrument changes have effected the spacecraft subsystems and data formats.

NOAA 16 DEB was lifted into orbit during the mission ‘Titan II SLV | NOAA 16’, on board a Titan II SLV space rocket.

The launch took place on Sept. 21, 2000, 10:22 a.m. from Space Launch Complex 4W.

For more information about the launch, click the button.

Launch to space Titan II SLV | NOAA 16
Titan II SLV | NOAA 16

Agency: N/A

Status: Launch Successful

Launch date: Sept. 21, 2000, 10:22 a.m. UTC

Rocket: Titan II SLV

Launch pad: Space Launch Complex 4W

Location: Vandenberg SFB, CA, USA

...

Latest news about this satellite

There are no fresh news available about this satellite. Check back as we update our databases every day.


Newsletter sign-up

Weekly statistics, charts and insights to help you stay on top of the space industry.